CW6467 Weather Reports


time (UTC)temp
F
wind
direction
speed
knots
gust
knots
rain 1hr
in
rain 24hr
in
rain mn
in
humidity
%
barometer
mb
20210723145828 81 190 1.7 5.2 0.00 0.02 0.02 73 987.9
20210723142828 78 225 1.7 4.3 0.00 0.02 0.02 82 988.0
20210723135827 76 233 1.7 2.6 0.00 0.02 0.02 92 987.9
20210723132828 74 202 0.0 2.6 0.00 0.02 0.02 99 988.0
20210723125828 73 190 0.0 0.0 0.00 0.02 0.02 99 987.8
20210723122828 71 190 0.9 0.9 0.00 0.02 0.02 99 988.1
20210723115828 69 190 0.0 0.0 0.00 0.02 0.02 99 987.7
20210723112828 69 190 0.0 0.0 0.00 0.02 0.02 99 988.1
20210723105827 69 190 0.0 0.0 0.00 0.02 0.02 98 988.0
20210723102828 70 190 0.0 0.0 0.00 0.02 0.02 98 987.7
20210723095828 70 190 0.0 0.0 0.00 0.02 0.02 98 987.2
20210723092757 71 190 0.0 0.0 0.00 0.02 0.02 98 987.2
20210723085828 72 190 0.0 1.7 0.00 0.02 0.02 98 987.5
20210723082758 72 190 0.9 1.7 0.00 0.02 0.02 97 987.4
20210723075827 72 190 0.0 1.7 0.00 0.02 0.02 97 987.6
20210723072758 73 190 0.0 1.7 0.01 0.02 0.02 96 987.6
20210723065828 73 221 0.0 0.9 0.02 0.02 0.02 96 987.6
20210723062828 74 209 1.7 1.7 0.01 0.01 0.01 94 987.8
20210723055828 73 189 1.7 1.7 0.00 0.00 0.00 94 987.9
20210723052828 74 265 0.0 1.7 0.00 0.00 0.00 93 988.1
20210723045828 74 307 0.0 0.9 0.00 0.00 0.00 92 988.1
20210723042828 74 39 0.0 0.9 0.00 0.00 0.00 92 988.1
20210723035828 74 9 0.0 1.7 0.00 0.00 0.00 92 987.9
20210723032828 74 286 0.0 1.7 0.00 0.00 0.00 92 987.8
20210723025828 75 281 0.0 0.9 0.00 0.00 0.00 90 987.9
20210723022828 75 281 0.0 0.9 0.00 0.00 0.00 89 987.6
20210723015828 76 290 0.0 0.9 0.00 0.00 0.00 88 987.4
20210723012828 77 290 0.0 0.0 0.00 0.00 0.00 86 987.4
20210723005828 78 290 0.0 0.9 0.00 0.00 0.00 82 987.5
20210723002828 80 273 0.0 0.9 0.00 0.00 0.00 79 987.5
20210722235828 81 281 0.9 1.7 0.00 0.00 0.00 75 987.7
20210722232828 83 231 0.0 1.7 0.00 0.00 0.00 72 987.6
20210722225828 83 26 0.9 1.7 0.00 0.00 0.00 71 987.7
20210722222828 84 245 0.9 4.3 0.00 0.00 0.00 71 987.8
20210722215828 84 210 0.0 3.5 0.00 0.00 0.00 69 988.0
20210722212828 85 66 0.9 3.5 0.00 0.00 0.00 66 987.9
20210722205828 85 236 0.9 3.5 0.00 0.00 0.00 62 988.1
20210722202828 85 211 0.9 5.2 0.00 0.00 0.00 66 988.2
20210722195828 85 191 1.7 5.2 0.00 0.00 0.00 65 988.6
20210722192828 82 207 0.0 3.5 0.00 0.00 0.00 72 988.6
20210722185828 82 200 2.6 4.3 0.00 0.00 0.00 74 988.7
20210722182828 82 146 0.0 4.3 0.00 0.01 0.00 75 989.1
20210722175828 83 50 0.9 3.5 0.00 0.10 0.00 72 989.1
20210722172828 81 247 0.0 4.3 0.00 0.10 0.00 72 989.5
20210722165828 79 219 2.6 5.2 0.00 0.18 0.00 75 989.7
20210722162828 78 153 0.9 5.2 0.00 0.19 0.00 75 990.0
20210722155828 77 243 1.7 3.5 0.00 0.35 0.00 77 990.3
20210722152828 75 29 1.7 4.3 0.00 0.35 0.00 79 990.2